Zurück zum Katalog

OTS 2

AktivKommunikationGEO
NORAD 10855·PAYLOAD·🇪🇺 EU

Gestartet May 11, 1978 von Cape Canaveral Space Force Station

Loading…

TLE

AktuellSource: Space-Track

Epoche: Sep 14, 2026, 14:22 UTC

1 10855U 78044A   26257.59910778 -.00000248  00000-0  00000-0 0  9995
2 10855   7.8192 303.3839 0009045 350.1479  37.0919  0.99139297204884

Verfolge OTS 2 in Echtzeit mit AllMySat

Download on the App Store